When you browse on this site, cookies collect data to enhance your experience and personalize the content and advertising you see.
Visit our Privacy Policy to learn more. By continuing to use the site, you agree to this use of cookies and data.
  • In Hungary
  • List of Countries
  • For 7 days
  • Water Temperature
  • Satellite Maps
  • Weather Map
  • News
  • Weather Widgets
  • user-avatar
    Login

    Hourly Weather Matlock

    Today, 20 January, Sunday

    Time Temperature Precipitation Wind Pressure Humidity
    00:00 +2°C° 0 mm 1 mps 742 mmHg 93%
    01:00 +2°C° 0 mm 1 mps 742 mmHg 93%
    02:00 +1°C° 0 mm 1 mps 742 mmHg 93%
    03:00 +1°C° 0 mm 1 mps 743 mmHg 93%
    04:00 +1°C° 0 mm 1 mps 743 mmHg 92%
    05:00 +1°C° 0 mm 1 mps 743 mmHg 92%
    06:00 0°C° 0 mm 0 mps 744 mmHg 92%
    07:00 0°C° 0 mm 0 mps 744 mmHg 91%
    08:00 0°C° 0 mm 0 mps 745 mmHg 91%
    09:00 +1°C° 0 mm 0 mps 745 mmHg 90%
    10:00 +2°C° 0 mm 0 mps 746 mmHg 87%
    11:00 +3°C° 0 mm 0 mps 746 mmHg 84%
    12:00 +4°C° 0 mm 1 mps 747 mmHg 82%
    13:00 +5°C° 0 mm 1 mps 747 mmHg 83%
    14:00 +5°C° 0 mm 1 mps 747 mmHg 85%
    15:00 +5°C° 0 mm 1 mps 748 mmHg 87%
    16:00 +4°C° 0 mm 1 mps 748 mmHg 89%
    17:00 +3°C° 0 mm 1 mps 748 mmHg 91%
    18:00 +2°C° 0 mm 1 mps 749 mmHg 93%
    19:00 +2°C° 0 mm 1 mps 749 mmHg 93%
    20:00 +2°C° 0 mm 2 mps 750 mmHg 93%
    21:00 +2°C° 0 mm 2 mps 750 mmHg 93%
    22:00 +2°C° 0 mm 2 mps 750 mmHg 93%
    23:00 +2°C° 0 mm 2 mps 751 mmHg 94%

    Tomorrow, 21 January, Monday

    Time Temperature Precipitation Wind Pressure Humidity
    00:00 +2°C° 0 mm 2 mps 751 mmHg 94%
    01:00 +2°C° 0 mm 2 mps 751 mmHg 94%
    02:00 +2°C° 0 mm 2 mps 751 mmHg 94%
    03:00 +3°C° 0 mm 1 mps 751 mmHg 93%
    04:00 +3°C° 0 mm 1 mps 751 mmHg 93%
    05:00 +3°C° 0 mm 1 mps 751 mmHg 92%
    06:00 +1°C° 0 mm 0 mps 751 mmHg 92%
    07:00 +2°C° 0 mm 1 mps 750 mmHg 92%
    08:00 +2°C° 0 mm 1 mps 750 mmHg 92%
    09:00 +3°C° 0 mm 1 mps 750 mmHg 92%
    10:00 +2°C° 0 mm 2 mps 749 mmHg 91%
    11:00 +2°C° 0 mm 3 mps 749 mmHg 90%
    12:00 +1°C° 0 mm 4 mps 748 mmHg 89%
    13:00 +1°C° 0 mm 4 mps 747 mmHg 88%
    14:00 +3°C° 0 mm 4 mps 746 mmHg 88%
    15:00 +2°C° 0 mm 5 mps 745 mmHg 87%
    16:00 +2°C° 0 mm 5 mps 744 mmHg 87%
    17:00 +1°C° 0 mm 5 mps 743 mmHg 87%
    18:00 +1°C° 0 mm 5 mps 742 mmHg 87%
    19:00 +1°C° 0.2 mm 6 mps 741 mmHg 88%
    20:00 0°C° 0.2 mm 7 mps 739 mmHg 88%
    21:00 +1°C° 0.2 mm 8 mps 738 mmHg 88%
    22:00 +1°C° 1.3 mm 8 mps 737 mmHg 87%
    23:00 0°C° 1.3 mm 7 mps 736 mmHg 86%

    Day after tomorrow, 22 January, Tuesday

    Time Temperature Precipitation Wind Pressure Humidity
    00:00 0°C° 1.3 mm 7 mps 735 mmHg 85%
    01:00 -1°C° 0.1 mm 7 mps 734 mmHg 84%
    02:00 -2°C° 0.1 mm 6 mps 734 mmHg 83%
    03:00 -2°C° 0.1 mm 5 mps 734 mmHg 83%
    04:00 -2°C° 0 mm 5 mps 733 mmHg 82%
    05:00 -2°C° 0 mm 5 mps 733 mmHg 82%
    06:00 -2°C° 0 mm 5 mps 732 mmHg 82%
    07:00 -2°C° 0 mm 5 mps 732 mmHg 83%
    08:00 -2°C° 0 mm 4 mps 732 mmHg 83%
    09:00 -2°C° 0 mm 4 mps 732 mmHg 84%
    10:00 -1°C° 0.1 mm 4 mps 733 mmHg 79%
    11:00 0°C° 0.1 mm 4 mps 733 mmHg 75%
    12:00 +1°C° 0.1 mm 5 mps 733 mmHg 71%
    13:00 0°C° 0.3 mm 4 mps 733 mmHg 72%
    14:00 0°C° 0.3 mm 4 mps 733 mmHg 74%
    15:00 0°C° 0.3 mm 4 mps 733 mmHg 75%
    16:00 -1°C° 0 mm 4 mps 733 mmHg 78%
    17:00 -1°C° 0 mm 4 mps 734 mmHg 80%
    18:00 -2°C° 0 mm 4 mps 734 mmHg 82%
    19:00 -1°C° 0 mm 3 mps 734 mmHg 82%
    20:00 -2°C° 0 mm 3 mps 735 mmHg 82%
    21:00 -2°C° 0 mm 3 mps 735 mmHg 82%
    22:00 -2°C° 0 mm 3 mps 735 mmHg 82%
    23:00 -2°C° 0 mm 3 mps 735 mmHg 83%

    23 January, Wednesday

    Time Temperature Precipitation Wind Pressure Humidity
    00:00 -3°C° 0 mm 2 mps 736 mmHg 83%
    01:00 -3°C° 0 mm 2 mps 736 mmHg 83%
    02:00 -3°C° 0 mm 2 mps 736 mmHg 83%
    03:00 -3°C° 0 mm 2 mps 736 mmHg 83%
    04:00 -3°C° 0 mm 2 mps 736 mmHg 84%
    05:00 -2°C° 0 mm 2 mps 736 mmHg 85%
    06:00 -2°C° 0 mm 2 mps 737 mmHg 86%
    07:00 -2°C° 0 mm 2 mps 737 mmHg 86%
    08:00 -2°C° 0 mm 2 mps 738 mmHg 85%
    09:00 -2°C° 0 mm 2 mps 738 mmHg 85%
    10:00 -1°C° 0 mm 2 mps 738 mmHg 79%
    11:00 +1°C° 0 mm 2 mps 739 mmHg 72%
    12:00 +2°C° 0 mm 2 mps 739 mmHg 66%
    13:00 +2°C° 0 mm 2 mps 739 mmHg 68%
    14:00 +2°C° 0 mm 2 mps 739 mmHg 71%
    15:00 +2°C° 0 mm 2 mps 739 mmHg 73%
    16:00 +1°C° 0 mm 2 mps 740 mmHg 78%
    17:00 +1°C° 0 mm 2 mps 740 mmHg 83%
    18:00 -1°C° 0 mm 2 mps 740 mmHg 88%
    19:00 -1°C° 0 mm 2 mps 741 mmHg 89%
    20:00 -1°C° 0 mm 2 mps 741 mmHg 90%
    21:00 -1°C° 0 mm 2 mps 741 mmHg 91%
    22:00 -1°C° 0 mm 2 mps 741 mmHg 91%
    23:00 -1°C° 0 mm 2 mps 741 mmHg 91%

    24 January, Thursday

    Time Temperature Precipitation Wind Pressure Humidity
    00:00 -1°C° 0 mm 2 mps 741 mmHg 91%
    01:00 -1°C° 0 mm 2 mps 741 mmHg 92%
    02:00 -1°C° 0 mm 2 mps 741 mmHg 92%
    03:00 -1°C° 0 mm 2 mps 741 mmHg 92%
    04:00 +1°C° 0 mm 2 mps 741 mmHg 93%
    05:00 +1°C° 0 mm 2 mps 741 mmHg 93%
    06:00 +1°C° 0 mm 2 mps 741 mmHg 94%
    07:00 +1°C° 0 mm 2 mps 741 mmHg 94%
    08:00 +2°C° 0 mm 1 mps 741 mmHg 94%
    09:00 +3°C° 0 mm 1 mps 742 mmHg 94%
    10:00 +3°C° 0 mm 1 mps 742 mmHg 91%
    11:00 +4°C° 0 mm 1 mps 742 mmHg 89%
    12:00 +5°C° 0 mm 1 mps 742 mmHg 86%
    13:00 +4°C° 0 mm 0 mps 742 mmHg 87%
    14:00 +4°C° 0 mm 0 mps 742 mmHg 88%
    15:00 +4°C° 0 mm 0 mps 743 mmHg 89%
    16:00 +3°C° 0 mm 0 mps 743 mmHg 90%
    17:00 +2°C° 0 mm 0 mps 743 mmHg 91%
    18:00 +1°C° 0 mm 0 mps 744 mmHg 92%
    19:00 +1°C° 0 mm 0 mps 744 mmHg 93%
    20:00 0°C° 0 mm 0 mps 745 mmHg 93%
    21:00 0°C° 0 mm 0 mps 745 mmHg 93%
    22:00 +1°C° 0 mm 1 mps 746 mmHg 93%
    23:00 +1°C° 0 mm 1 mps 746 mmHg 94%

    25 January, Friday

    Time Temperature Precipitation Wind Pressure Humidity
    00:00 +1°C° 0 mm 1 mps 746 mmHg 94%
    01:00 +1°C° 0 mm 1 mps 746 mmHg 94%
    02:00 +1°C° 0 mm 1 mps 746 mmHg 94%
    03:00 +1°C° 0 mm 2 mps 746 mmHg 95%
    04:00 +1°C° 0.1 mm 2 mps 747 mmHg 95%
    05:00 +1°C° 0.1 mm 2 mps 747 mmHg 96%
    06:00 +2°C° 0.1 mm 2 mps 747 mmHg 96%
    07:00 +2°C° 0.1 mm 2 mps 747 mmHg 96%
    08:00 +1°C° 0.1 mm 3 mps 747 mmHg 96%
    09:00 +2°C° 0.1 mm 3 mps 747 mmHg 97%
    10:00 +3°C° 0 mm 3 mps 747 mmHg 96%
    11:00 +4°C° 0 mm 3 mps 747 mmHg 95%
    12:00 +5°C° 0 mm 3 mps 747 mmHg 94%
    13:00 +5°C° 0 mm 3 mps 747 mmHg 95%
    14:00 +5°C° 0 mm 3 mps 747 mmHg 96%
    15:00 +5°C° 0 mm 3 mps 747 mmHg 97%
    16:00 +4°C° 0 mm 3 mps 747 mmHg 97%
    17:00 +3°C° 0 mm 3 mps 747 mmHg 96%
    18:00 +3°C° 0 mm 3 mps 747 mmHg 96%
    19:00 +3°C° 0 mm 4 mps 747 mmHg 95%
    20:00 +3°C° 0 mm 4 mps 747 mmHg 93%
    21:00 +2°C° 0 mm 5 mps 747 mmHg 91%
    22:00 +2°C° 0 mm 5 mps 746 mmHg 92%
    23:00 +2°C° 0 mm 5 mps 746 mmHg 92%
    Show more